DL1NER Weather Reports


time (UTC)temp
C
wind
direction
speed
KPH
gust
KPH
rain 1hr
cm
rain 24hr
cm
rain mn
cm
humidity
%
barometer
mb
20190823095014 23 89 11.3 20.9 0.00 0.00 0.00 36 1025.9
20190823094014 23 67 6.4 17.7 0.00 0.00 0.00 32 1025.9
20190823092014 22 347 8.0 17.7 0.00 0.00 0.00 36 1026.0
20190823090014 21 17 4.8 12.9 0.00 0.00 0.00 57 1026.2
20190823085014 21 67 3.2 12.9 0.00 0.00 0.00 63 1026.4
20190823084014 20 14 1.6 6.4 0.00 0.00 0.00 67 1026.3
20190823082014 19 85 1.6 6.4 0.00 0.00 0.00 74 1026.5
20190823081014 19 150 1.6 3.2 0.00 0.00 0.00 71 1026.6
20190823080014 18 122 1.6 4.8 0.00 0.00 0.00 74 1026.5
20190823075014 17 131 3.2 8.0 0.00 0.00 0.00 76 1026.6
20190823074014 17 92 1.6 4.8 0.00 0.00 0.00 78 1026.4
20190823073014 16 103 1.6 3.2 0.00 0.00 0.00 79 1026.6
20190823072014 15 67 1.6 6.4 0.00 0.00 0.00 80 1026.6
20190823071015 14 271 0.0 1.6 0.00 0.00 0.00 82 1026.6
20190823070015 13 271 0.0 3.2 0.00 0.00 0.00 84 1026.6
20190823064014 12 271 0.0 0.0 0.00 0.00 0.00 86 1026.5
20190823063014 12 271 0.0 0.0 0.00 0.00 0.00 88 1026.5
20190823062014 11 271 0.0 0.0 0.00 0.00 0.00 88 1026.5
20190823060014 11 271 0.0 0.0 0.00 0.00 0.00 89 1026.3
20190823055014 10 271 0.0 0.0 0.00 0.00 0.00 89 1026.4
20190823054014 10 271 0.0 0.0 0.00 0.00 0.00 89 1026.4
20190823053013 10 271 0.0 0.0 0.00 0.00 0.00 89 1026.3
20190823052014 10 271 0.0 0.0 0.00 0.00 0.00 89 1026.4
20190823045015 9 271 0.0 0.0 0.00 0.00 0.00 88 1026.3
20190823044014 9 271 0.0 0.0 0.00 0.00 0.00 87 1026.4
20190823042014 9 271 1.6 3.2 0.00 0.00 0.00 87 1026.3
20190823041014 9 271 3.2 4.8 0.00 0.00 0.00 87 1026.3
20190823040014 9 271 0.0 0.0 0.00 0.00 0.00 87 1026.3
20190823035014 9 271 0.0 0.0 0.00 0.00 0.00 85 1026.2
20190823033015 10 271 0.0 0.0 0.00 0.00 0.00 85 1026.2
20190823032015 10 271 0.0 0.0 0.00 0.00 0.00 85 1026.2
20190823031013 10 271 0.0 0.0 0.00 0.00 0.00 85 1026.2
20190823030015 10 271 0.0 0.0 0.00 0.00 0.00 84 1026.2
20190823025013 10 271 0.0 0.0 0.00 0.00 0.00 84 1026.2
20190823024014 10 271 0.0 0.0 0.00 0.00 0.00 84 1026.2
20190823023014 10 271 0.0 0.0 0.00 0.00 0.00 84 1026.2
20190823022014 10 271 0.0 0.0 0.00 0.00 0.00 84 1026.1
20190823021014 10 271 0.0 0.0 0.00 0.00 0.00 84 1026.2
20190823020014 10 271 0.0 0.0 0.00 0.00 0.00 82 1026.1
20190823015015 10 271 0.0 0.0 0.00 0.00 0.00 81 1026.0
20190823014015 10 271 0.0 0.0 0.00 0.00 0.00 80 1026.0
20190823013013 10 271 0.0 0.0 0.00 0.00 0.00 78 1026.0
20190823012013 10 271 0.0 0.0 0.00 0.00 0.00 78 1026.0
20190823011013 11 271 1.6 4.8 0.00 0.00 0.00 77 1026.0
20190823010013 11 271 1.6 3.2 0.00 0.00 0.00 77 1026.0
20190823004014 11 271 1.6 3.2 0.00 0.00 0.00 76 1026.1
20190823003014 11 271 3.2 4.8 0.00 0.00 0.00 76 1026.0
20190823002014 11 271 1.6 3.2 0.00 0.00 0.00 74 1026.0
20190823001015 11 271 1.6 3.2 0.00 0.00 0.00 74 1026.1
20190823000013 11 271 3.2 4.8 0.00 0.00 0.00 73 1026.2
20190822235013 11 271 3.2 4.8 0.00 0.00 0.00 72 1026.2
20190822234013 11 271 1.6 3.2 0.00 0.00 0.00 71 1026.3
20190822233014 11 271 0.0 1.6 0.00 0.00 0.00 71 1026.3
20190822231013 12 271 1.6 3.2 0.00 0.00 0.00 71 1026.3
20190822230014 12 271 1.6 3.2 0.00 0.00 0.00 70 1026.2
20190822225015 12 271 3.2 4.8 0.00 0.00 0.00 70 1026.3
20190822224014 12 271 3.2 4.8 0.00 0.00 0.00 70 1026.2
20190822223013 12 271 1.6 3.2 0.00 0.00 0.00 68 1026.2
20190822221013 12 271 1.6 3.2 0.00 0.00 0.00 67 1026.3
20190822215013 13 271 0.0 1.6 0.00 0.00 0.00 65 1026.1
20190822214014 13 271 0.0 1.6 0.00 0.00 0.00 65 1026.3
20190822213013 13 271 1.6 3.2 0.00 0.00 0.00 64 1026.2
20190822212013 13 271 0.0 0.0 0.00 0.00 0.00 63 1026.2
20190822211013 13 271 1.6 3.2 0.00 0.00 0.00 62 1026.1
20190822210013 14 271 1.6 3.2 0.00 0.00 0.00 61 1026.2
20190822205013 14 271 1.6 3.2 0.00 0.00 0.00 61 1026.0
20190822204013 15 271 0.0 1.6 0.00 0.00 0.00 59 1025.9
20190822203014 15 271 3.2 4.8 0.00 0.00 0.00 58 1025.9
20190822202013 15 271 1.6 3.2 0.00 0.00 0.00 57 1025.9
20190822201012 15 271 3.2 4.8 0.00 0.00 0.00 57 1025.9
20190822200014 15 271 3.2 4.8 0.00 0.00 0.00 56 1025.7
20190822195013 16 271 3.2 4.8 0.00 0.00 0.00 56 1025.7
20190822194013 16 271 3.2 4.8 0.00 0.00 0.00 55 1025.7
20190822193012 16 268 3.2 4.8 0.00 0.00 0.00 55 1025.6
20190822192014 17 100 1.6 3.2 0.00 0.00 0.00 53 1025.5
20190822191014 17 100 1.6 1.6 0.00 0.00 0.00 52 1025.4
20190822190014 18 100 1.6 3.2 0.00 0.00 0.00 50 1025.3
20190822185012 18 100 3.2 4.8 0.00 0.00 0.00 49 1025.2
20190822184012 19 100 1.6 3.2 0.00 0.00 0.00 47 1025.0
20190822183012 20 100 1.6 3.2 0.00 0.00 0.00 45 1024.9
20190822182012 20 100 0.0 1.6 0.00 0.00 0.00 43 1024.8
20190822181012 21 100 0.0 0.0 0.00 0.00 0.00 40 1024.7
20190822180012 21 100 0.0 1.6 0.00 0.00 0.00 38 1024.7
20190822175012 21 100 1.6 3.2 0.00 0.00 0.00 38 1024.7
20190822173012 22 96 1.6 6.4 0.00 0.00 0.00 36 1024.6
20190822172012 22 96 1.6 3.2 0.00 0.00 0.00 35 1024.6
20190822171012 23 96 1.6 4.8 0.00 0.00 0.00 35 1024.5
20190822170012 23 140 1.6 6.4 0.00 0.00 0.00 35 1024.6
20190822165012 23 93 3.2 6.4 0.00 0.00 0.00 34 1024.6
20190822164012 24 49 3.2 6.4 0.00 0.00 0.00 34 1024.5
20190822163013 24 65 6.4 14.5 0.00 0.00 0.00 31 1024.5
20190822162012 25 347 6.4 14.5 0.00 0.00 0.00 29 1024.5
20190822161012 26 103 3.2 6.4 0.00 0.00 0.00 26 1024.5
20190822160012 27 360 4.8 9.7 0.00 0.00 0.00 30 1024.6
20190822155012 27 132 6.4 11.3 0.00 0.00 0.00 30 1024.6
20190822154012 27 152 4.8 17.7 0.00 0.00 0.00 30 1024.7
20190822153012 26 193 3.2 8.0 0.00 0.00 0.00 26 1024.7
20190822151012 27 125 3.2 9.7 0.00 0.00 0.00 29 1024.8
20190822150012 27 112 8.0 16.1 0.00 0.00 0.00 29 1024.9
20190822145012 27 128 6.4 11.3 0.00 0.00 0.00 23 1024.8
20190822143012 26 113 4.8 16.1 0.00 0.00 0.00 29 1024.9
20190822142012 26 180 3.2 4.8 0.00 0.00 0.00 29 1024.9
20190822141012 26 121 3.2 11.3 0.00 0.00 0.00 31 1024.9
20190822140012 26 85 6.4 16.1 0.00 0.00 0.00 26 1025.1
20190822135012 25 138 4.8 9.7 0.00 0.00 0.00 30 1025.0
20190822134012 26 90 4.8 11.3 0.00 0.00 0.00 30 1025.0
20190822133011 26 325 4.8 12.9 0.00 0.00 0.00 30 1025.0
20190822132012 26 82 6.4 14.5 0.00 0.00 0.00 29 1025.1
20190822131012 25 75 3.2 12.9 0.00 0.00 0.00 31 1025.2
20190822130012 25 15 4.8 14.5 0.00 0.00 0.00 37 1025.3
20190822125013 25 43 8.0 20.9 0.00 0.00 0.00 32 1025.4
20190822124012 25 30 3.2 8.0 0.00 0.00 0.00 31 1025.3
20190822123012 25 340 6.4 14.5 0.00 0.00 0.00 32 1025.4
20190822120011 24 27 4.8 17.7 0.00 0.00 0.00 30 1025.5
20190822115011 24 32 8.0 17.7 0.00 0.00 0.00 36 1025.6
20190822114011 23 5 6.4 12.9 0.00 0.00 0.00 36 1025.7
20190822113011 23 22 6.4 16.1 0.00 0.00 0.00 31 1025.8
20190822112012 23 74 8.0 17.7 0.00 0.00 0.00 34 1025.9
20190822111011 24 9 8.0 16.1 0.00 0.00 0.00 39 1026.0
20190822110011 23 96 4.8 14.5 0.00 0.00 0.00 39 1026.0
20190822105011 23 136 4.8 12.9 0.00 0.00 0.00 40 1026.1
20190822104011 23 64 6.4 17.7 0.00 0.00 0.00 38 1026.1
20190822101012 22 78 9.7 17.7 0.00 0.00 0.00 37 1026.4
20190822100013 22 76 8.0 16.1 0.00 0.00 0.00 43 1026.3